ウィルタネン彗星

46P/Wirtanen (2018)

English version
Home page
Updated on July 17, 2018

---------------------------------------------------------------------

・ プロフィール

・ 軌道要素

Epoch 2018 Dec. 28.0 TT = JDT 2458480.5
T 2018 Dec. 12.94825 TT                                 MPCW
q   1.0553573            (2000.0)            P               Q
n   0.18118193     Peri.  356.35491     +0.19780398     -0.95927112
a   3.0930917      Node    82.15941     +0.90442396     +0.09926135
e   0.6588018      Incl.   11.74623     +0.37800911     +0.26447326
P   5.44
From 1290 observations 2007 Aug. 4-2018 July 10, mean residual 0".8.
     Nongravitational parameters A1 = +0.10, A2 = -0.1752.

・ 星図

・ 光度変化

        m1 = 14.5 + 5 logΔ +  8.0 log r          [    ,-150]  (              〜2018年 7月15日)
        m1 =  8.0 + 5 logΔ + 27.0 log r(t - 12)  [-150, 180]  (2018年 7月15日〜2019年 6月10日)
        m1 = 14.5 + 5 logΔ +  8.0 log r          [ 180,    ]  (2019年 6月10日〜              )

---------------------------------------------------------------------

軌道要素はM.P.E.C. 2018-N81に掲載されたものです。
星図はステラナビゲータ Ver.8 (アストロアーツ) で作成したものです。
光度グラフはComet for Windowsで作成したものです。

---------------------------------------------------------------------

Copyright(C) Seiichi Yoshida (comet@aerith.net). All rights reserved.